Location: Dunedin
(45.8670°S, 170.5000°E)
Time: 12:14:19
(UTC+13:00)

Cosmos 1869 Rocket - Pass Details

Date: 24 January 2019
Orbit: 606 x 632 km, 82.5° (Epoch: 19 February)

Event Time Altitude Azimuth Distance (km) Brightness Sun altitude
Rises 22:26:57 0° 183° (S) 2,928 7.8 -10.3°
Reaches altitude 10° 22:29:21 10° 174° (S) 2,010 6.7 -10.6°
Maximum altitude 22:33:31 38° 105° (ESE) 955 4.3 -11.2°
Enters shadow 22:36:30 17° 43° (NE) 1,584 5.0 -11.6°
